Showing default

GONETS D1 8, 27059

Orbit data source: Space-Track

GONETS D1 8, 27059 is a payload satellite owned by Gonets (CIS) in LEO that was launched on Fri, 28 Dec 2001 UTC via a TSIKLON-3 launch vehicle from the Plesetsk Missile And Space Complex (PKMTR). Payload-class satellites include a variety of spacecraft equipped with specific instruments for various scientific and technological missions. These include communications satellites like Starlink; space stations such as the ISS; scientific satellites like the Hubble; Earth observation satellites from companies like Planet Labs, Umbra, and HawkEye 360; GPS; miniature CubeSats for education and research; and military/defense satellites.

Loading next visibility...
Identifier
27059, 2001-058E
Orbit
LEO
Country
Flag of CISCIS
Related business
Manufacturer
NPO PM
Mission
Non-operational Civil Communications
Bus & Motor
STRELA-3, Unknown motor
Mass
225 kg wet, 225 kg dry
Launch date (UTC)
2001-12-28 (24 years ago)
Launch vehicle
TSIKLON-3
Launch site
Plesetsk Missile And Space Complex (PKMTR)
Object type
Payload
Rocket body
Debris
Shape & HBR
Cyl + 1 Ant, 3.5 m
Radar Cross Section
1.798 m², Medium (>0.1 m² and < 1m²)

Expand to show TLE details & history
Last TLE update: 17 hours ago

TLE from 17 hours ago
0 GONETS D1 8
1 27059U 01058E   25261.32449068  .00000014  00000-0  17354-4 0  9998
2 27059  82.5449  26.8408 0002868 133.4180 226.7150 12.61548319 92294
Epoch: 2025-09-18T07:47Z
TLE epoch observation values (Epoch: 2025-09-18T07:47:15.994Z)
Latitude
Longitude
-87.46356°
Altitude
1,420.821 km
Speed
7.15 km/s
True Right ascension
01h 47m 21s
True Declination
0° 00' 00"
Sunlit
Object was in full shadow at epoch
Visualization orbit readout
Latitude
Unknown
Longitude
Unknown
Altitude
Unknown
Speed
Unknown
Apparent Right ascension
Unknown
Apparent Declination
Unknown
Sunlit
N/A
Visualization observer readout
Local Sidereal Time
17:58:05
Azimuth
Unknown
Elevation
Unknown
Doppler factor
Unknown
Orbital elements
Apogee altitude
1,416.118 km
Perigee altitude
1,411.648 km
Semi-major axis
7,792.02 km
Eccentricity
0.00029
Inclination
82.5449°
RAAN
26.8408°
Arg. of periapsis
133.418°
True anomaly
226.69108°
Mean anomaly
226.715°
Eccentric anomaly
226.70304°
Mean motion
3.1555 °/min
Orbital period
114.09 mins
BSTAR
0.000017354
Loading maneuver chart data...
Computing Atmospheric mass density...
Loading historical data...
Loading historical data...
Loading historical data...
Loading historical data...
Loading historical data...
Loading historical data...
Loading historical data...

Documentation

Showing up to 5 results
|